Voltar ao catálogo

DODECAPOLE 2

AtivoMilitarPO
NORAD 1510·PAYLOAD·🇺🇸 United States

Lançado Aug 13, 1965 de Vandenberg Space Force Base

Loading…

Próximas Passagens (próximas 24 horas)

TLE

AtualizadoSource: Space-Track

Época: Sep 14, 2026, 07:24 UTC

1 01510U 65065C   26257.30890754  .00002045  00000-0  11131-2 0  9997
2 01510  90.0702  25.6665 0037383 255.3513 104.3527 14.11627531 45737

Acompanhe DODECAPOLE 2 em tempo real com AllMySat

Download on the App Store